This demonstration page uses our WeatherBlox Daily Observations layout. Learn more.

Left ArrowRight Arrow

Hourly Observations for September 29, 2019

Temp ( °F °C ) Dew Point ( °F °C ) Humidity (%) Winds ( mph kmh ) Pressure ( in mb ) Visibility ( mi km ) Precip ( " mm )
12:08 am 00:08 Cloudy with Mist and Fog 63 17.2 61 16.1 93 93 ESE 6 9 29.97 1015 4 6 0.00 0.00
12:39 am 00:39 Cloudy with Mist and Fog 63 17.2 61 16.1 93 93 SE 6 9 29.97 1015 3 5 0.00 0.00
12:54 am 00:54 Cloudy 63 17.2 61 16.1 93 93 SE 7 11 29.97 1015 8 13 0.00 0.00
1:26 am 01:26 Cloudy with Mist and Fog 63 17.2 61 16.1 93 93 SE 8 13 29.97 1015 5 8 0.00 0.00
1:54 am 01:54 Cloudy with Mist and Fog 64 17.8 62 16.7 93 93 SE 6 9 29.97 1015 4 6 0.00 0.00
2:54 am 02:54 Cloudy with Mist and Fog 64 17.8 62 16.7 93 93 SE 9 15 29.95 1014 6 10 0.00 0.00
3:54 am 03:54 Cloudy with Mist and Fog 64 17.8 62 16.7 93 93 SE 9 15 29.93 1014 6 10 0.00 0.00
4:54 am 04:54 Cloudy with Mist and Fog 65 18.3 63 17.2 93 93 ESE 9 15 29.91 1013 6 10 0.00 0.00
5:13 am 05:13 Cloudy with Nearby Thunderstorms 65 18.3 63 17.2 93 93 ESE 10 17 29.89 1012 5 8 0.00 0.00
5:37 am 05:37 Cloudy with Nearby Thunderstorms 65 18.3 63 17.2 93 93 ESE 9 15 29.88 1012 2 3 0.12 3.05
5:41 am 05:41 Cloudy with Nearby Thunderstorms 65 18.3 63 17.2 93 93 ESE 7 11 29.89 1012 3 4 0.22 5.59
5:49 am 05:49 Cloudy with Thunderstorms 64 18 63 17 94 94 E 3 6 29.90 1012 9 14 0.23 5.84
5:54 am 05:54 Cloudy with Thunderstorms 65 18.3 63 17.2 93 93 E 7 11 29.91 1013 9 14 0.24 6.10
6:09 am 06:09 Cloudy 65 18.3 63 17.2 93 93 SE 7 11 29.89 1012 10 16 0.00 0.00
6:54 am 06:54 Cloudy 66 18.9 63 17.2 90 90 SE 7 11 29.90 1013 10 16 0.00 0.00
7:54 am 07:54 Cloudy 67 19.4 64 17.8 91 91 SSE 12 19 29.94 1014 10 16 0.00 0.00
8:43 am 08:43 Partly Cloudy with Light Rain 68 20 65 18.3 90 90 SE 9 15 29.92 1013 10 16 0.00 0.00
8:52 am 08:52 Partly Cloudy with Light Rain 68 20 64 18 88 88 SE 8 13 29.92 1013 10 16 0.00 0.00
8:54 am 08:54 Mostly Cloudy with Light Rain 68 20 65 18.3 90 90 SE 7 11 29.93 1014 10 16 0.01 0.25
9:11 am 09:11 Mostly Cloudy with Nearby Thunderstorms 68 20 65 18.3 90 90 SE 10 17 29.91 1013 10 16 0.00 0.00
9:50 am 09:50 Cloudy with Light Rain 68 20 64 18 88 88 ESE 10 17 29.91 1013 9 14 0.02 0.51
9:54 am 09:54 Cloudy with Nearby Thunderstorms 68 20 65 18.3 90 90 ESE 9 15 29.92 1013 7 11 0.03 0.76
10:12 am 10:12 Cloudy with Nearby Thunderstorms 68 20 66 18.9 93 93 NNW 5 7 29.92 1013 3 5 0.01 0.25
10:44 am 10:44 Cloudy with Light Rain 69 20.6 66 18.9 90 90 SE 12 19 29.92 1013 10 16 0.03 0.76
10:54 am 10:54 Cloudy 70 21.1 67 19.4 90 90 SE 12 19 29.92 1013 10 16 0.03 0.76
11:01 am 11:01 Mostly Cloudy with Nearby Thunderstorms 70 21.1 67 19.4 90 90 SE 12 19 29.90 1013 10 16 0.00 0.00
11:19 am 11:19 Cloudy 71 21.7 68 20 90 90 ESE 15 24 29.90 1013 10 16 0.01 0.25
11:54 am 11:54 Cloudy 71 21.7 68 20 90 90 ESE 14 22 29.91 1013 10 16 0.01 0.25
12:54 pm 12:54 Cloudy 70 21.1 66 18.9 87 87 ESE 22 35 29.88 1012 10 16 0.01 0.25
1:54 pm 13:54 Cloudy 70 21.1 66 18.9 87 87 ESE 18 30 29.87 1012 10 16 0.00 0.00
2:54 pm 14:54 Cloudy 71 21.7 66 18.9 84 84 ESE 18 30 29.85 1011 10 16 0.00 0.00
3:12 pm 15:12 Cloudy 72 22.2 66 18.9 82 82 SE 21 33 29.83 1010 10 16 0.00 0.00
3:54 pm 15:54 Cloudy 73 22.8 67 19.4 81 81 ESE 20 31 29.82 1010 10 16 0.00 0.00
4:54 pm 16:54 Cloudy 75 23.9 69 20.6 82 82 SE 18 30 29.80 1009 10 16 0.00 0.00
5:32 pm 17:32 Partly Cloudy 77 25 70 21.1 79 79 SE 18 30 29.76 1008 10 16 0.00 0.00
5:54 pm 17:54 Mostly Sunny 77 25 70 21.1 79 79 SE 18 30 29.77 1008 10 16 0.00 0.00
6:54 pm 18:54 Mostly Cloudy 77 25 70 21.1 79 79 SE 13 20 29.78 1008 10 16 0.00 0.00
7:54 pm 19:54 Clear 77 25 71 21.7 82 82 SSE 17 28 29.77 1008 10 16 0.00 0.00
8:54 pm 20:54 Clear 78 25.6 70 21.1 76 76 SSE 17 28 29.79 1009 10 16 0.00 0.00
9:50 pm 21:50 Mostly Cloudy 79 26 72 22 79 79 SSE 18 30 29.77 1008 10 16 0.00 0.00
9:54 pm 21:54 Mostly Cloudy 78 25.6 71 21.7 79 79 SSE 20 31 29.80 1009 10 16 0.00 0.00
10:54 pm 22:54 Cloudy 78 25.6 71 21.7 79 79 S 17 28 29.80 1009 10 16 0.00 0.00
11:54 pm 23:54 Cloudy 78 25.6 71 21.7 79 79 S 22 35 29.79 1009 10 16 0.00 0.00

Powered by AerisWeather